Terminal Aerodrome Forecast
Issued by NWS Grand Rapids, MI

Home | Current Version | Previous Version | Text Only | Print | Product List | Glossary On
Versions: 1 2 3 4 5 6 7 8 9 10 11 12 13 14 15
000
FTUS43 KGRR 292300
TAFGRR
TAF
KGRR 292339Z 3000/3024 15008KT P6SM VCSH BKN120
     FM300600 17011KT P6SM VCTS BKN070CB
     FM301200 20012G21KT P6SM BKN035
     FM301800 21012G23KT P6SM VCTS BKN040CB=

USA.gov is the U.S. government's official web portal to all federal, state and local government web resources and services.